GW4759 Weather Reports


time (UTC)temp
F
wind
direction
speed
knots
gust
knots
rain 1hr
in
rain 24hr
in
rain mn
in
humidity
%
barometer
mb
20260504201553 77 300 3.5 7.8 0.00 0.00 0.00 36 1013.3
20260504200045 78 270 3.5 9.6 0.00 0.00 0.00 36 1013.5
20260504194548 78 0 0.9 8.7 0.00 0.00 0.00 35 1013.6
20260504193045 78 219 2.6 5.2 0.00 0.00 0.00 34 1013.9
20260504191543 77 181 2.6 8.7 0.00 0.00 0.00 34 1014.1
20260504190042 76 300 4.3 8.7 0.00 0.00 0.00 36 1014.4
20260504184543 76 286 1.7 11.3 0.00 0.00 0.00 38 1014.6
20260504183045 77 336 1.7 8.7 0.00 0.00 0.00 36 1014.6
20260504181549 76 37 1.7 7.0 0.00 0.00 0.00 39 1014.8
20260504180045 76 179 3.5 8.7 0.00 0.00 0.00 36 1015.0
20260504174546 76 262 1.7 6.1 0.00 0.00 0.00 37 1015.0
20260504173042 75 237 2.6 6.1 0.00 0.00 0.00 36 1015.1
20260504171551 76 266 0.9 4.3 0.00 0.00 0.00 40 1015.1
20260504081551 37 0 0.0 0.9 0.00 0.00 0.00 95 1016.2
20260504044542 41 0 0.0 0.0 0.00 0.00 0.00 90 1016.5
20260504043044 41 330 0.0 0.9 0.00 0.00 0.00 90 1016.5
20260504041541 42 0 0.0 0.9 0.00 0.00 0.00 89 1016.3
20260504040048 42 0 0.0 0.9 0.00 0.00 0.00 89 1016.2
20260504034545 42 0 0.0 0.9 0.00 0.00 0.00 88 1016.3
20260504033043 42 0 0.0 0.0 0.00 0.00 0.00 89 1016.3
20260504031543 42 0 0.0 0.0 0.00 0.00 0.00 89 1016.5
20260504030042 43 0 0.0 0.0 0.00 0.00 0.00 88 1016.6
20260504024549 43 0 0.0 0.0 0.00 0.00 0.00 87 1016.5
20260504023045 44 0 0.0 0.0 0.00 0.00 0.00 85 1016.6
20260504021544 44 0 0.0 0.0 0.00 0.00 0.00 84 1016.3
20260504020121 45 0 0.0 0.0 0.00 0.00 0.00 82 1016.3
20260504014558 46 0 0.0 0.0 0.00 0.00 0.00 80 1016.0
20260504013059 46 0 0.0 0.0 0.00 0.00 0.00 78 1015.5
20260504011547 47 0 0.0 0.0 0.00 0.00 0.00 75 1015.5
20260504010046 49 0 0.0 0.0 0.00 0.00 0.00 74 1015.2
20260504004616 50 0 0.0 0.0 0.00 0.00 0.00 71 1015.3
20260504003048 52 0 0.0 0.0 0.00 0.00 0.00 69 1015.1
20260504001612 54 0 0.0 0.0 0.00 0.00 0.00 64 1014.9
20260504000058 56 0 0.0 0.0 0.00 0.00 0.00 57 1014.7
20260503234544 59 0 0.0 0.0 0.00 0.00 0.00 53 1014.7
20260503233044 62 0 0.0 2.6 0.00 0.00 0.00 42 1014.5
20260503231543 63 234 0.0 1.7 0.00 0.00 0.00 38 1014.5
20260503230100 63 0 0.0 0.9 0.00 0.00 0.00 39 1014.6
20260503224548 64 0 0.0 2.6 0.00 0.00 0.00 36 1014.7
20260503223047 64 13 0.0 4.3 0.00 0.00 0.00 37 1014.7
20260503221554 65 0 0.9 3.5 0.00 0.00 0.00 36 1014.8
20260503220049 65 0 0.9 5.2 0.00 0.00 0.00 34 1015.0
20260503214541 66 127 0.0 3.5 0.00 0.00 0.00 34 1015.1
20260503213041 67 251 0.9 5.2 0.00 0.00 0.00 34 1015.3
20260503211548 68 63 0.9 3.5 0.00 0.00 0.00 29 1015.5
20260503210045 69 31 0.9 4.3 0.00 0.00 0.00 30 1015.6
20260503204543 68 281 0.9 6.1 0.00 0.00 0.00 31 1015.6
20260503203059 67 238 1.7 8.7 0.00 0.00 0.00 31 1015.9